75000 - Paris

Modèle arome - 04/05/2026 06:00
Altitude : 28 - 131m

05/05/2026 à 11:58 (UTC)

Date (UTC!) Model Picto Température Min Max T850 T950 Humidité Précipitation Neige (proba) Pression Nuages Bas Nuages Moyen Nuages Haut Nuages Total Nuages Corrigés CAPE Iso Vent (dir) Vent (vitesse) Rafales (vitesse)
04/05 - 07:00 arome 15,44 15,15 15,49 5,63 10,92 80,32 0,00 (1h) 0,00 10,13 100,00 100,00 100,00 100,01 100,00 137,07 0,00 322,73 4,16 10,79
04/05 - 08:00 arome 15,54 15,39 15,59 5,47 10,87 80,50 0,00 (1h) 0,00 10,12 100,00 100,00 100,00 100,01 100,00 140,70 0,00 288,31 5,38 11,70
04/05 - 09:00 arome 15,47 15,32 15,60 5,44 10,69 80,56 0,32 (1h) 0,00 10,13 99,90 98,90 100,00 100,01 99,90 122,53 0,00 316,58 5,55 16,19
04/05 - 10:00 arome 16,38 15,47 16,48 5,56 11,19 78,50 0,25 (1h) 0,00 10,13 95,55 100,00 100,00 100,01 100,00 261,68 0,00 71,67 6,52 15,03
04/05 - 11:00 arome 16,82 16,26 16,82 5,52 11,56 76,06 0,51 (1h) 0,00 10,12 9,00 100,00 100,00 100,01 100,00 234,75 0,00 91,62 5,08 14,86
04/05 - 12:00 arome 17,75 16,86 17,75 5,86 12,21 71,74 0,03 (1h) 0,00 10,12 57,55 100,00 100,00 100,01 100,00 318,16 0,00 78,11 2,80 13,34
04/05 - 13:00 arome 17,84 17,72 18,12 5,94 12,59 70,38 0,00 (1h) 0,00 10,11 61,15 100,00 100,00 100,01 100,00 337,25 0,00 108,34 6,64 15,28
04/05 - 14:00 arome 18,36 17,82 18,42 6,11 12,92 67,04 0,00 (1h) 0,00 10,11 72,20 100,00 100,00 100,01 100,00 307,97 0,00 82,64 7,59 18,28
04/05 - 15:00 arome 17,11 17,10 18,45 6,30 12,46 79,54 0,18 (1h) 0,00 10,11 38,00 100,00 99,80 100,01 100,00 449,10 0,00 30,47 8,52 23,88
04/05 - 16:00 arome 17,58 17,12 17,60 6,52 12,84 70,11 0,09 (1h) 0,00 10,10 0,00 100,00 100,00 100,01 100,00 156,71 0,00 27,06 5,54 17,00
04/05 - 17:00 arome 17,68 17,57 17,68 6,03 12,76 69,90 0,10 (1h) 0,00 10,10 0,35 100,00 100,00 100,01 100,00 263,41 0,00 249,78 1,46 12,07
04/05 - 18:00 arome 17,53 17,52 17,80 6,14 12,85 69,89 0,00 (1h) 0,00 10,10 5,75 100,00 0,00 100,01 100,00 257,45 0,00 282,53 3,98 9,48
04/05 - 19:00 arome 17,33 17,31 17,51 6,46 12,82 67,90 0,01 (1h) 0,00 10,10 4,30 100,00 100,00 100,01 100,00 128,78 0,00 344,85 5,37 10,07
04/05 - 20:00 arome 16,32 16,32 17,35 6,18 12,32 83,00 0,09 (1h) 0,00 10,11 29,75 100,00 100,00 100,01 100,00 418,69 0,00 43,77 8,33 16,48
04/05 - 21:00 arome 15,56 15,56 16,29 6,79 12,18 81,68 0,25 (1h) 0,00 10,11 0,00 100,00 100,00 100,01 100,00 23,32 0,00 20,66 6,73 16,50
04/05 - 22:00 arome 15,43 15,38 15,56 6,56 11,82 83,14 0,00 (1h) 0,00 10,10 54,80 77,45 100,00 100,01 77,45 122,64 0,00 10,27 5,45 13,24
04/05 - 23:00 arome 15,38 15,37 15,51 6,23 11,78 87,38 0,00 (1h) 0,00 10,10 97,45 100,00 99,85 100,01 100,00 207,81 0,00 1,99 6,23 15,30
05/05 - 00:00 arome 15,05 15,05 15,37 5,81 11,45 89,83 0,00 (1h) 0,00 10,10 100,00 79,20 100,00 100,01 100,00 227,87 0,00 6,86 7,83 16,39
05/05 - 01:00 arome 14,77 14,77 15,05 5,77 11,31 91,28 0,00 (1h) 0,00 10,09 100,00 77,55 100,00 100,01 100,00 163,89 0,00 10,73 6,96 16,55
05/05 - 02:00 arome 14,19 14,19 14,77 6,37 11,07 93,94 0,00 (1h) 0,00 10,09 100,00 96,75 100,00 100,01 100,00 102,17 0,00 357,75 9,19 18,57
05/05 - 03:00 arome 13,38 13,38 14,20 6,39 10,69 95,20 0,00 (1h) 0,00 10,09 100,00 99,80 100,00 100,01 100,00 42,74 0,00 2,26 10,95 24,50
05/05 - 04:00 arome 12,79 12,79 13,35 5,68 10,38 94,52 0,00 (1h) 0,00 10,09 100,00 100,00 100,00 100,01 100,00 20,50 0,00 14,66 12,80 28,25
05/05 - 05:00 arome 12,48 12,48 12,78 5,52 10,27 95,10 0,00 (1h) 0,00 10,08 100,00 99,40 100,00 100,01 100,00 46,31 0,00 16,53 12,02 27,09
05/05 - 06:00 arome 12,57 12,36 12,57 5,66 10,24 93,76 0,00 (1h) 0,00 10,08 100,00 100,00 100,00 100,01 100,00 57,01 0,00 13,48 11,74 24,82
05/05 - 07:00 arome 12,46 12,46 12,57 5,57 9,84 93,59 0,01 (1h) 0,00 10,08 100,00 100,00 100,00 100,01 100,00 49,43 0,00 14,98 12,67 25,73
05/05 - 08:00 arome 12,56 12,39 12,56 5,58 9,60 91,29 0,06 (1h) 0,00 10,08 100,00 100,00 100,00 100,01 100,00 32,62 0,00 14,27 12,70 25,90
05/05 - 09:00 arome 12,74 12,57 12,74 5,67 9,46 91,35 0,28 (1h) 0,00 10,08 100,00 100,00 100,00 100,01 100,00 40,18 0,00 9,05 13,05 26,53
05/05 - 10:00 arome 13,26 12,74 13,26 5,39 9,68 89,72 0,85 (1h) 0,00 10,07 100,00 100,00 100,00 100,01 100,00 34,16 0,00 5,90 12,96 27,05
05/05 - 11:00 arome 13,67 13,26 13,67 5,16 9,82 88,25 0,69 (1h) 0,00 10,07 100,00 100,00 100,00 100,01 100,00 28,82 0,00 0,16 13,03 27,03
05/05 - 12:00 arome 13,78 13,66 13,78 5,30 9,77 86,91 0,97 (1h) 0,00 10,07 100,00 100,00 100,00 100,01 100,00 26,05 0,00 353,95 15,02 30,39
05/05 - 13:00 arome 14,05 13,78 14,05 5,37 9,92 86,14 1,76 (1h) 0,00 10,06 100,00 100,00 100,00 100,01 100,00 43,62 0,00 352,94 14,95 31,97
05/05 - 14:00 arome 13,98 13,95 14,05 5,25 9,86 86,20 3,02 (1h) 0,00 10,06 100,00 100,00 100,00 100,01 100,00 42,00 0,00 347,88 14,91 32,41
05/05 - 15:00 arome 13,90 13,85 13,97 5,14 9,85 86,09 2,79 (1h) 0,00 10,06 100,00 100,00 100,00 100,01 100,00 36,57 0,00 336,98 16,39 33,87
05/05 - 16:00 arome 13,82 13,82 13,90 4,94 9,81 86,70 3,77 (1h) 0,00 10,06 100,00 100,00 100,00 100,01 100,00 50,35 0,00 326,55 14,24 32,66
05/05 - 17:00 arome 13,61 13,61 13,81 4,97 9,53 85,85 3,96 (1h) 0,00 10,06 100,00 100,00 100,00 100,01 100,00 48,37 0,00 330,29 14,67 33,27
05/05 - 18:00 arome 13,08 13,08 13,60 4,52 9,30 88,00 4,67 (1h) 0,00 10,06 100,00 100,00 100,00 100,01 100,00 33,32 0,00 320,89 15,12 31,37